Погода в Латине

Италия     41°28′08″N   12°53′54″E
темп.,
°C
ветер,
м/с
пор.,
м/с
влажн.,
%
обл.,
%
осадки,
мм/ч
давл.,
гПа
погр.,
м
15 июня, вт
вт1523:00+20св11780 0.1 101613
02:00+19в11840 0.1 101611
05:00+18всв11880 0.0 101616
08:00+22юв11670 0.0 1017367
11:00+26ююз325220 0.0 10171268
14:00+26ююз434114 0.0 10181114
17:00+25юз32465 0.0 1017927
20:00+22зюз226943 0.0 101686
16 июня, ср
ср1623:00+18ссз11835 0.0 101729
02:00+18ссв228361 0.0 101617
05:00+17св21845 0.0 101616
08:00+22юв1164100 0.0 1016280
11:00+26ююз3252100 0.0 10161137
14:00+27ююз4351100 0.0 10161266
17:00+26ююз3256100 0.1 1016979
20:00+22зюз117395 0.3 101645
17 июня, чт
чт1723:00+20ссз1178100 0.1 101625
02:00+19всв118217 0.1 101611
05:00+19св118699 0.1 101612
08:00+22зюз0069100 0.3 1017295
11:00+28ююв1146100 0.0 1017987
14:00+28ююз424796 0.1 10171138
17:00+27юз324713 0.1 1017846
20:00+23зюз1162100 0.1 101839
18 июня, пт
пт1823:00+20ссв226775 0.0 101818
02:00+20всв226884 0.0 101724
05:00+20юз007284 0.0 101811
08:00+24ссз11576 0.0 1019231
11:00+29зюз22346 0.0 10181020
14:00+31юз533323 0.0 10171046
17:00+29зюз33379 0.0 1018893
20:00+24з22585 0.0 101874
19 июня, сб
сб1923:00+21с22635 0.0 101817
02:00+21св21603 0.0 101714
05:00+20ссв215943 0.0 101714
08:00+25с124898 0.0 1018148
11:00+32зюз1226100 0.0 1016969
14:00+31юз5332100 0.0 1016797
17:00+29з233899 0.0 1016561
20:00+26зсз225486 0.0 101542